{"data":{"norad_id":67790,"intl_designator":"2026-030AC","name":"KUIPER-00268","alt_names":[],"object_type":"PAYLOAD","status":"ACTIVE","operator":null,"country":"US","launch_date":"2026-02-12","launch_site_code":"FRGUI","launch_vehicle":null,"mission":null,"orbit_class":"UNKNOWN","rcs_meters":null,"size_class":null,"mass_kg":null,"dimensions":null,"purposes":[],"wikipedia_slug":null,"has_3d_model":false,"image_url":null,"decayed_at":null,"tle_current":{"epoch":"2026-09-20T20:54:25.775424Z","epoch_age_seconds":54441,"freshness":"FRESH","line1":"1 67790U 26030AC  26263.87113166  .00001934  00000+0  28262-3 0  9991","line2":"2 67790  51.9043  47.5746 0000783 132.0983 228.0046 14.79932362 34397","mean_motion":14.79932362,"eccentricity":7.83e-5,"inclination_deg":51.9043,"raan_deg":47.5746,"arg_perigee_deg":132.0983,"mean_anomaly_deg":228.0046,"bstar":0.00028262,"rev_number":3439,"period_min":97.301744118492,"perigee_km":628.98894225906,"apogee_km":630.08634410818,"semimajor_km":7007.6746431836,"source":"CELESTRAK","updated_at":"2026-09-21T09:00:16.857866Z"}}}